,,,PA_Meas_PMT16A,,PR_Meas_QMR101_102,,RH_Meas_QMH101,,SR_Meas_QMS101,,TA_Meas_QMH101,,GenWind,,GenWind,
date,time,status,PA,status,PR,status,RH,status,SR,status,TA,status,DirAvg,status,SpdAvg,
2012-01-14, 00:00:04,VALID,1008.66,VALID,0,VALID,104,VALID,0.112112,VALID,24.0235,VALID,38,VALID,0,
2012-01-14, 00:01:04,VALID,1008.66,VALID,0,VALID,104,VALID,0.112112,VALID,24.0429,VALID,38,VALID,0,
2012-01-14, 00:02:04,VALID,1008.64,VALID,0,VALID,104,VALID,0.112112,VALID,24.0624,VALID,38,VALID,0,
2012-01-14, 00:03:04,VALID,1008.62,VALID,0,VALID,104,VALID,0.112112,VALID,24.0819,VALID,38,VALID,0.414063,
2012-01-14, 00:04:04,VALID,1008.59,VALID,0,VALID,104,VALID,0.112112,VALID,24.0819,VALID,38,VALID,0.517969,
2012-01-14, 00:05:04,VALID,1008.63,VALID,0,VALID,104,VALID,0,VALID,24.0819,VALID,155,VALID,0.596484,
2012-01-14, 00:06:04,VALID,1008.61,VALID,0,VALID,104,VALID,0.112112,VALID,24.1227,VALID,155,VALID,0.517187,
2012-01-14, 00:07:04,VALID,1008.62,VALID,0,VALID,104,VALID,0.112112,VALID,24.0819,VALID,155,VALID,0.258984,
2012-01-14, 00:08:04,VALID,1008.62,VALID,0,VALID,104,VALID,0.112112,VALID,24.0819,VALID,155,VALID,0.276172,
2012-01-14, 00:09:04,VALID,1008.6,VALID,0,VALID,104,VALID,0.112112,VALID,24.0624,VALID,155,VALID,0.174219,
2012-01-14, 00:10:04,VALID,1008.57,VALID,0,VALID,104,VALID,0,VALID,24.0624,VALID,155,VALID,0.009375,
2012-01-14, 00:11:04,VALID,1008.54,VALID,0,VALID,104,VALID,0,VALID,24.0643,VALID,155,VALID,0.0929687,
2012-01-14, 00:12:04,VALID,1008.55,VALID,0,VALID,104,VALID,0.112112,VALID,24.0624,VALID,155,VALID,0.16875,
2012-01-14, 00:13:04,VALID,1008.57,VALID,0,VALID,104,VALID,0,VALID,24.0643,VALID,155,VALID,0.233203,
2012-01-14, 00:14:04,VALID,1008.55,VALID,0,VALID,104,VALID,0.112112,VALID,24.0429,VALID,155,VALID,0.0910156,
2012-01-14, 00:15:04,VALID,1008.54,VALID,0,VALID,104,VALID,0.112112,VALID,24.0429,VALID,155,VALID,0.00234375,
2012-01-14, 00:16:04,VALID,1008.52,VALID,0,VALID,104,VALID,0.112112,VALID,24.0448,VALID,155,VALID,0.207031,
2012-01-14, 00:17:04,VALID,1008.52,VALID,0,VALID,104,VALID,0.112112,VALID,24.0235,VALID,155,VALID,0,
2012-01-14, 00:18:04,VALID,1008.54,VALID,0,VALID,104,VALID,0,VALID,24.0448,VALID,155,VALID,0.269141,
2012-01-14, 00:19:04,VALID,1008.6,VALID,0,VALID,104,VALID,0.112112,VALID,24.0235,VALID,155,VALID,0.025,
2012-01-14, 00:20:04,VALID,1008.57,VALID,0,VALID,104,VALID,0.112112,VALID,24.004,VALID,155,VALID,0,
2012-01-14, 00:21:04,VALID,1008.59,VALID,0,VALID,104,VALID,0.112112,VALID,24.004,VALID,155,VALID,0,
2012-01-14, 00:22:04,VALID,1008.58,VALID,0,VALID,104,VALID,0,VALID,24.0271,VALID,155,VALID,0,
2012-01-14, 00:23:04,VALID,1008.58,VALID,0,VALID,104,VALID,0,VALID,24.0058,VALID,155,VALID,0,
2012-01-14, 00:24:04,VALID,1008.57,VALID,0,VALID,104,VALID,0,VALID,24.0076,VALID,155,VALID,0.101953,
2012-01-14, 00:25:04,VALID,1008.56,VALID,0,VALID,104,VALID,0,VALID,23.9473,VALID,155,VALID,0.198828,
2012-01-14, 00:26:04,VALID,1008.52,VALID,0,VALID,104,VALID,0,VALID,23.9473,VALID,155,VALID,0,
2012-01-14, 00:27:04,VALID,1008.49,VALID,0,VALID,104,VALID,0,VALID,23.9297,VALID,155,VALID,0,
2012-01-14, 00:28:04,VALID,1008.48,VALID,0,VALID,104,VALID,0,VALID,23.8889,VALID,155,VALID,0,
2012-01-14, 00:29:04,VALID,1008.44,VALID,0,VALID,104,VALID,0,VALID,23.8676,VALID,155,VALID,0,
2012-01-14, 00:30:04,VALID,1008.43,VALID,0,VALID,104,VALID,0,VALID,23.8694,VALID,155,VALID,0,
2012-01-14, 00:31:04,VALID,1008.43,VALID,0,VALID,104,VALID,0,VALID,23.8304,VALID,155,VALID,0,
2012-01-14, 00:32:04,VALID,1008.42,VALID,0,VALID,104,VALID,0,VALID,23.8304,VALID,155,VALID,0,
2012-01-14, 00:33:04,VALID,1008.38,VALID,0,VALID,104,VALID,0,VALID,23.8322,VALID,155,VALID,0,
2012-01-14, 00:34:04,VALID,1008.39,VALID,0,VALID,104,VALID,0,VALID,23.8322,VALID,155,VALID,0,
2012-01-14, 00:35:04,VALID,1008.34,VALID,0,VALID,104,VALID,0,VALID,23.8109,VALID,155,VALID,0,
2012-01-14, 00:36:04,VALID,1008.33,VALID,0,VALID,104,VALID,0,VALID,23.8109,VALID,155,VALID,0.0207031,
2012-01-14, 00:37:04,VALID,1008.32,VALID,0,VALID,104,VALID,0,VALID,23.8109,VALID,155,VALID,0.300391,
2012-01-14, 00:38:04,VALID,1008.33,VALID,0,VALID,104,VALID,0,VALID,23.7914,VALID,155,VALID,0.129688,
2012-01-14, 00:39:04,VALID,1008.31,VALID,0,VALID,104,VALID,0,VALID,23.7914,VALID,155,VALID,0.310156,
2012-01-14, 00:40:04,VALID,1008.3,VALID,0,VALID,104,VALID,0,VALID,23.772,VALID,155,VALID,0.165234,
2012-01-14, 00:41:04,VALID,1008.32,VALID,0,VALID,104,VALID,0,VALID,23.7738,VALID,155,VALID,0,
2012-01-14, 00:42:04,VALID,1008.3,VALID,0,VALID,104,VALID,0,VALID,23.7932,VALID,155,VALID,0,
2012-01-14, 00:43:04,VALID,1008.28,VALID,0,VALID,104,VALID,0,VALID,23.7738,VALID,155,VALID,0,
2012-01-14, 00:44:04,VALID,1008.27,VALID,0,VALID,104,VALID,0,VALID,23.733,VALID,155,VALID,0,
2012-01-14, 00:45:04,VALID,1008.26,VALID,0,VALID,104,VALID,0,VALID,23.733,VALID,155,VALID,0,
2012-01-14, 00:46:04,VALID,1008.25,VALID,0,VALID,104,VALID,0,VALID,23.7525,VALID,155,VALID,0.0375,
2012-01-14, 00:47:04,VALID,1008.28,VALID,0,VALID,104,VALID,0,VALID,23.7525,VALID,155,VALID,0.084375,
2012-01-14, 00:48:04,VALID,1008.25,VALID,0,VALID,104,VALID,0,VALID,23.7738,VALID,155,VALID,0.164063,
2012-01-14, 00:49:04,VALID,1008.24,VALID,0,VALID,104,VALID,0,VALID,23.7914,VALID,155,VALID,0.202344,
2012-01-14, 00:50:04,VALID,1008.23,VALID,0,VALID,104,VALID,0,VALID,23.7914,VALID,155,VALID,0.147266,
2012-01-14, 00:51:04,VALID,1008.22,VALID,0,VALID,104,VALID,0,VALID,23.7914,VALID,155,VALID,0.1125,
2012-01-14, 00:52:04,VALID,1008.22,VALID,0,VALID,104,VALID,0,VALID,23.7914,VALID,155,VALID,0,
2012-01-14, 00:53:04,VALID,1008.17,VALID,0,VALID,104,VALID,0,VALID,23.7914,VALID,155,VALID,0,
2012-01-14, 00:54:04,VALID,1008.14,VALID,0,VALID,104,VALID,0,VALID,23.8109,VALID,155,VALID,0,
2012-01-14, 00:55:04,VALID,1008.18,VALID,0,VALID,104,VALID,0,VALID,23.8127,VALID,155,VALID,0,
2012-01-14, 00:56:04,VALID,1008.17,VALID,0,VALID,104,VALID,0,VALID,23.7914,VALID,155,VALID,0,
2012-01-14, 00:57:04,VALID,1008.19,VALID,0,VALID,104,VALID,0,VALID,23.8304,VALID,155,VALID,0,
2012-01-14, 00:58:04,VALID,1008.17,VALID,0,VALID,104,VALID,0,VALID,23.8499,VALID,155,VALID,0,
2012-01-14, 00:59:04,VALID,1008.18,VALID,0,VALID,104,VALID,0,VALID,23.8907,VALID,155,VALID,0,
2012-01-14, 01:00:04,VALID,1008.17,VALID,0,VALID,104,VALID,0,VALID,23.8694,VALID,155,VALID,0,
2012-01-14, 01:01:04,VALID,1008.2,VALID,0,VALID,104,VALID,0,VALID,23.9084,VALID,155,VALID,0,
2012-01-14, 01:02:04,VALID,1008.2,VALID,0,VALID,104,VALID,0,VALID,23.9084,VALID,155,VALID,0,
2012-01-14, 01:03:04,VALID,1008.2,VALID,0,VALID,104,VALID,0,VALID,23.9491,VALID,155,VALID,0,
2012-01-14, 01:04:04,VALID,1008.19,VALID,0,VALID,104,VALID,0,VALID,23.9473,VALID,155,VALID,0,
2012-01-14, 01:05:04,VALID,1008.15,VALID,0,VALID,104,VALID,0,VALID,23.9686,VALID,155,VALID,0,
2012-01-14, 01:06:04,VALID,1008.17,VALID,0,VALID,104,VALID,0,VALID,23.9473,VALID,155,VALID,0,
2012-01-14, 01:07:04,VALID,1008.18,VALID,0,VALID,104,VALID,0,VALID,23.9668,VALID,155,VALID,0,
2012-01-14, 01:08:04,VALID,1008.16,VALID,0,VALID,104,VALID,0,VALID,23.9473,VALID,155,VALID,0,
2012-01-14, 01:09:04,VALID,1008.12,VALID,0,VALID,104,VALID,0,VALID,23.9473,VALID,155,VALID,0,
2012-01-14, 01:10:04,VALID,1008.08,VALID,0,VALID,104,VALID,0,VALID,23.9278,VALID,155,VALID,0.261719,
2012-01-14, 01:11:04,VALID,1008.08,VALID,0,VALID,104,VALID,0,VALID,23.9473,VALID,155,VALID,0.178906,
2012-01-14, 01:12:04,VALID,1008.06,VALID,0,VALID,104,VALID,0,VALID,23.9686,VALID,155,VALID,0.0425781,
2012-01-14, 01:13:04,VALID,1008.08,VALID,0,VALID,104,VALID,0,VALID,23.9278,VALID,155,VALID,0,
2012-01-14, 01:14:04,VALID,1008.07,VALID,0,VALID,104,VALID,0,VALID,23.9278,VALID,155,VALID,0,
2012-01-14, 01:15:04,VALID,1008.08,VALID,0,VALID,104,VALID,0,VALID,23.9278,VALID,155,VALID,0,
2012-01-14, 01:16:04,VALID,1008.04,VALID,0,VALID,104,VALID,0,VALID,23.9084,VALID,155,VALID,0,
2012-01-14, 01:17:04,VALID,1008.06,VALID,0,VALID,104,VALID,0,VALID,23.9278,VALID,155,VALID,0,
2012-01-14, 01:18:04,VALID,1008.04,VALID,0,VALID,104,VALID,0,VALID,23.9297,VALID,155,VALID,0.00429688,
2012-01-14, 01:19:04,VALID,1008,VALID,0,VALID,104,VALID,0,VALID,23.9084,VALID,155,VALID,0,
2012-01-14, 01:20:04,VALID,1008,VALID,0,VALID,104,VALID,0,VALID,23.8694,VALID,155,VALID,0,
2012-01-14, 01:21:04,VALID,1008.04,VALID,0,VALID,104,VALID,0,VALID,23.8499,VALID,155,VALID,0.003125,
2012-01-14, 01:22:04,VALID,1008.04,VALID,0,VALID,104,VALID,0,VALID,23.8109,VALID,155,VALID,0,
2012-01-14, 01:23:04,VALID,1008.03,VALID,0,VALID,104,VALID,0,VALID,23.8109,VALID,155,VALID,0,
2012-01-14, 01:24:04,VALID,1008,VALID,0,VALID,104,VALID,0,VALID,23.7914,VALID,155,VALID,0.255469,
2012-01-14, 01:25:04,VALID,1008,VALID,0,VALID,104,VALID,0,VALID,23.733,VALID,147,VALID,0.490625,
2012-01-14, 01:26:04,VALID,1008,VALID,0,VALID,104,VALID,0,VALID,23.733,VALID,111,VALID,0.418359,
2012-01-14, 01:27:04,VALID,1008.01,VALID,0,VALID,104,VALID,0,VALID,23.694,VALID,111,VALID,0.311719,
2012-01-14, 01:28:04,VALID,1008.05,VALID,0,VALID,104,VALID,0,VALID,23.694,VALID,111,VALID,0.131641,
2012-01-14, 01:29:04,VALID,1008.06,VALID,0,VALID,104,VALID,0,VALID,23.694,VALID,111,VALID,0.160156,
2012-01-14, 01:30:04,VALID,1008.07,VALID,0,VALID,104,VALID,0,VALID,23.694,VALID,111,VALID,0.252344,
2012-01-14, 01:31:04,VALID,1008.07,VALID,0,VALID,104,VALID,0,VALID,23.694,VALID,111,VALID,0.334375,
2012-01-14, 01:32:04,VALID,1008.11,VALID,0,VALID,104,VALID,0,VALID,23.7135,VALID,111,VALID,0.2875,
2012-01-14, 01:33:04,VALID,1008.06,VALID,0,VALID,104,VALID,0,VALID,23.6745,VALID,111,VALID,0.339844,
2012-01-14, 01:34:04,VALID,1008.05,VALID,0,VALID,104,VALID,0,VALID,23.6532,VALID,66,VALID,0.385547,
2012-01-14, 01:35:04,VALID,1008.02,VALID,0,VALID,104,VALID,0,VALID,23.6745,VALID,66,VALID,0.417969,
2012-01-14, 01:36:04,VALID,1008.02,VALID,0,VALID,104,VALID,0,VALID,23.655,VALID,66,VALID,0.390234,
2012-01-14, 01:37:04,VALID,1008.01,VALID,0,VALID,104,VALID,0,VALID,23.6356,VALID,66,VALID,0.299219,
2012-01-14, 01:38:04,VALID,1007.98,VALID,0,VALID,104,VALID,0,VALID,23.6356,VALID,66,VALID,0.162891,
2012-01-14, 01:39:04,VALID,1007.96,VALID,0,VALID,104,VALID,0,VALID,23.6373,VALID,66,VALID,0.210156,
2012-01-14, 01:40:04,VALID,1007.95,VALID,0,VALID,104,VALID,0,VALID,23.5966,VALID,66,VALID,0.3125,
2012-01-14, 01:41:04,VALID,1007.92,VALID,0,VALID,104,VALID,0,VALID,23.5966,VALID,66,VALID,0.488672,
2012-01-14, 01:42:04,VALID,1007.92,VALID,0,VALID,104,VALID,0,VALID,23.5966,VALID,66,VALID,0.517969,
2012-01-14, 01:43:04,VALID,1007.92,VALID,0,VALID,104,VALID,0,VALID,23.6161,VALID,66,VALID,0.291406,
2012-01-14, 01:44:04,VALID,1007.93,VALID,0,VALID,104,VALID,0,VALID,23.5966,VALID,66,VALID,0.0917969,
2012-01-14, 01:45:04,VALID,1007.97,VALID,0,VALID,104,VALID,0,VALID,23.6161,VALID,66,VALID,0.223828,
2012-01-14, 01:46:04,VALID,1007.93,VALID,0,VALID,104,VALID,0.112112,VALID,23.6356,VALID,66,VALID,0.410156,
2012-01-14, 01:47:04,VALID,1007.93,VALID,0,VALID,104,VALID,0,VALID,23.655,VALID,66,VALID,0.348437,
2012-01-14, 01:48:04,VALID,1007.92,VALID,0,VALID,104,VALID,0,VALID,23.6745,VALID,66,VALID,0.330469,
2012-01-14, 01:49:04,VALID,1007.9,VALID,0,VALID,104,VALID,0.112112,VALID,23.6745,VALID,66,VALID,0.314844,
2012-01-14, 01:50:04,VALID,1007.9,VALID,0,VALID,104,VALID,0,VALID,23.6568,VALID,66,VALID,0.399609,
2012-01-14, 01:51:04,VALID,1007.93,VALID,0,VALID,104,VALID,0,VALID,23.655,VALID,66,VALID,0.317969,
2012-01-14, 01:52:04,VALID,1007.9,VALID,0,VALID,104,VALID,0,VALID,23.6745,VALID,66,VALID,0.202344,
2012-01-14, 01:53:04,VALID,1007.93,VALID,0,VALID,104,VALID,0,VALID,23.6958,VALID,66,VALID,0.410937,
2012-01-14, 01:54:04,VALID,1007.89,VALID,0,VALID,104,VALID,0,VALID,23.655,VALID,63,VALID,0.602734,
2012-01-14, 01:55:04,VALID,1007.9,VALID,0,VALID,104,VALID,0,VALID,23.694,VALID,66,VALID,0.714844,
2012-01-14, 01:56:04,VALID,1007.91,VALID,0,VALID,104,VALID,0,VALID,23.7135,VALID,66,VALID,0.301172,
2012-01-14, 01:57:04,VALID,1007.92,VALID,0,VALID,104,VALID,0,VALID,23.694,VALID,66,VALID,0.335938,
2012-01-14, 01:58:04,VALID,1007.92,VALID,0,VALID,104,VALID,0,VALID,23.7153,VALID,66,VALID,0.162891,
2012-01-14, 01:59:04,VALID,1007.94,VALID,0,VALID,104,VALID,0,VALID,23.694,VALID,66,VALID,0.121484,
2012-01-14, 02:00:04,VALID,1007.9,VALID,0,VALID,104,VALID,0,VALID,23.7348,VALID,60,VALID,0.661719,
2012-01-14, 02:01:04,VALID,1007.93,VALID,0,VALID,104,VALID,0,VALID,23.7135,VALID,60,VALID,0.442969,
2012-01-14, 02:02:04,VALID,1007.87,VALID,0,VALID,104,VALID,0,VALID,23.694,VALID,60,VALID,0.281641,
2012-01-14, 02:03:04,VALID,1007.85,VALID,0,VALID,104,VALID,0,VALID,23.6958,VALID,60,VALID,0.0425781,
2012-01-14, 02:04:04,VALID,1007.86,VALID,0,VALID,104,VALID,0,VALID,23.6356,VALID,60,VALID,0.0859375,
2012-01-14, 02:05:04,VALID,1007.86,VALID,0,VALID,104,VALID,0,VALID,23.6568,VALID,60,VALID,0.0398437,
2012-01-14, 02:06:04,VALID,1007.91,VALID,0,VALID,104,VALID,0,VALID,23.6161,VALID,60,VALID,0.263672,
2012-01-14, 02:07:04,VALID,1007.91,VALID,0,VALID,104,VALID,0,VALID,23.6161,VALID,60,VALID,0.239844,
2012-01-14, 02:08:04,VALID,1007.93,VALID,0,VALID,104,VALID,0,VALID,23.5771,VALID,60,VALID,0,
2012-01-14, 02:09:04,VALID,1007.92,VALID,0,VALID,104,VALID,0,VALID,23.6179,VALID,60,VALID,0,
2012-01-14, 02:10:04,VALID,1007.93,VALID,0,VALID,104,VALID,0,VALID,23.6179,VALID,60,VALID,0.0597656,
2012-01-14, 02:11:04,VALID,1007.92,VALID,0,VALID,104,VALID,0,VALID,23.5966,VALID,60,VALID,0.117969,
2012-01-14, 02:12:04,VALID,1007.95,VALID,0,VALID,104,VALID,0,VALID,23.5966,VALID,60,VALID,0.306641,
2012-01-14, 02:13:04,VALID,1007.92,VALID,0,VALID,104,VALID,0,VALID,23.6179,VALID,60,VALID,0.539844,
2012-01-14, 02:14:04,VALID,1007.91,VALID,0,VALID,104,VALID,0,VALID,23.5984,VALID,60,VALID,0.375781,
2012-01-14, 02:15:04,VALID,1007.88,VALID,0,VALID,104,VALID,0,VALID,23.5771,VALID,60,VALID,0.316016,
2012-01-14, 02:16:04,VALID,1007.82,VALID,0,VALID,104,VALID,0,VALID,23.5576,VALID,60,VALID,0.577734,
2012-01-14, 02:17:04,VALID,1007.82,VALID,0,VALID,104,VALID,0,VALID,23.5594,VALID,60,VALID,0.569531,
2012-01-14, 02:18:04,VALID,1007.81,VALID,0,VALID,104,VALID,0,VALID,23.5204,VALID,60,VALID,0.519141,
2012-01-14, 02:19:04,VALID,1007.81,VALID,0,VALID,104,VALID,0,VALID,23.5009,VALID,60,VALID,0.532812,
2012-01-14, 02:20:04,VALID,1007.83,VALID,0,VALID,104,VALID,0,VALID,23.462,VALID,59,VALID,0.430078,
2012-01-14, 02:21:04,VALID,1007.81,VALID,0,VALID,104,VALID,0,VALID,23.4602,VALID,58,VALID,0.360938,
2012-01-14, 02:22:04,VALID,1007.78,VALID,0,VALID,104,VALID,0,VALID,23.4407,VALID,58,VALID,0.405859,
2012-01-14, 02:23:04,VALID,1007.78,VALID,0,VALID,104,VALID,0,VALID,23.462,VALID,58,VALID,0.344922,
2012-01-14, 02:24:04,VALID,1007.78,VALID,0,VALID,104,VALID,0,VALID,23.4407,VALID,58,VALID,0.302344,
2012-01-14, 02:25:04,VALID,1007.75,VALID,0,VALID,104,VALID,0,VALID,23.462,VALID,58,VALID,0.213281,
2012-01-14, 02:26:04,VALID,1007.78,VALID,0,VALID,104,VALID,0,VALID,23.4407,VALID,58,VALID,0,
2012-01-14, 02:27:04,VALID,1007.76,VALID,0,VALID,104,VALID,0,VALID,23.4212,VALID,58,VALID,0.441016,
2012-01-14, 02:28:04,VALID,1007.78,VALID,0,VALID,104,VALID,0,VALID,23.4815,VALID,58,VALID,0.375781,
2012-01-14, 02:29:04,VALID,1007.73,VALID,0,VALID,104,VALID,0,VALID,23.4797,VALID,59,VALID,0.464844,
2012-01-14, 02:30:04,VALID,1007.72,VALID,0,VALID,104,VALID,0,VALID,23.4797,VALID,74,VALID,0.661328,
2012-01-14, 02:31:04,VALID,1007.75,VALID,0,VALID,104,VALID,0,VALID,23.4992,VALID,100,VALID,0.41875,
2012-01-14, 02:32:04,VALID,1007.67,VALID,0,VALID,104,VALID,0,VALID,23.4797,VALID,78,VALID,0.603906,
2012-01-14, 02:33:04,VALID,1007.67,VALID,0,VALID,104,VALID,0,VALID,23.5009,VALID,66,VALID,0.350391,
2012-01-14, 02:34:04,VALID,1007.66,VALID,0,VALID,104,VALID,0,VALID,23.4602,VALID,66,VALID,0.383594,
2012-01-14, 02:35:04,VALID,1007.69,VALID,0,VALID,104,VALID,0,VALID,23.4602,VALID,66,VALID,0.593359,
2012-01-14, 02:36:04,VALID,1007.69,VALID,0,VALID,104,VALID,0,VALID,23.4602,VALID,53,VALID,0.411328,
2012-01-14, 02:37:04,VALID,1007.74,VALID,0,VALID,104,VALID,0,VALID,23.4602,VALID,53,VALID,0.339063,
2012-01-14, 02:38:04,VALID,1007.73,VALID,0,VALID,104,VALID,0,VALID,23.4815,VALID,53,VALID,0.235938,
2012-01-14, 02:39:04,VALID,1007.73,VALID,0,VALID,104,VALID,0,VALID,23.4602,VALID,58,VALID,0.923437,
2012-01-14, 02:40:04,VALID,1007.76,VALID,0,VALID,104,VALID,0,VALID,23.4815,VALID,62,VALID,0.433984,
2012-01-14, 02:41:04,VALID,1007.73,VALID,0,VALID,104,VALID,0,VALID,23.4602,VALID,62,VALID,0.601172,
2012-01-14, 02:42:04,VALID,1007.7,VALID,0,VALID,104,VALID,0,VALID,23.4602,VALID,75,VALID,0.872266,
2012-01-14, 02:43:04,VALID,1007.68,VALID,0,VALID,104,VALID,0,VALID,23.4797,VALID,88,VALID,1.3793,
2012-01-14, 02:44:04,VALID,1007.66,VALID,0,VALID,104,VALID,0,VALID,23.5009,VALID,91,VALID,1.13086,
2012-01-14, 02:45:04,VALID,1007.67,VALID,0,VALID,104,VALID,0,VALID,23.4815,VALID,78,VALID,1.08047,
2012-01-14, 02:46:04,VALID,1007.68,VALID,0,VALID,104,VALID,0,VALID,23.4797,VALID,77,VALID,1.17461,
2012-01-14, 02:47:04,VALID,1007.66,VALID,0,VALID,104,VALID,0,VALID,23.4797,VALID,80,VALID,0.91875,
2012-01-14, 02:48:04,VALID,1007.65,VALID,0,VALID,104,VALID,0,VALID,23.4992,VALID,92,VALID,1.14258,
2012-01-14, 02:49:04,VALID,1007.6,VALID,0,VALID,104,VALID,0,VALID,23.5204,VALID,91,VALID,1.35977,
2012-01-14, 02:50:04,VALID,1007.6,VALID,0,VALID,104,VALID,0,VALID,23.4992,VALID,89,VALID,1.0082,
2012-01-14, 02:51:04,VALID,1007.62,VALID,0,VALID,104,VALID,0,VALID,23.5186,VALID,79,VALID,0.935547,
2012-01-14, 02:52:04,VALID,1007.61,VALID,0,VALID,104,VALID,0,VALID,23.5399,VALID,73,VALID,0.901563,
2012-01-14, 02:53:04,VALID,1007.62,VALID,0,VALID,104,VALID,0,VALID,23.5186,VALID,65,VALID,0.922266,
2012-01-14, 02:54:04,VALID,1007.64,VALID,0,VALID,104,VALID,0,VALID,23.4992,VALID,68,VALID,1.37227,
2012-01-14, 02:55:04,VALID,1007.62,VALID,0,VALID,104,VALID,0,VALID,23.5186,VALID,68,VALID,1.10117,
2012-01-14, 02:56:04,VALID,1007.63,VALID,0,VALID,104,VALID,0,VALID,23.5186,VALID,69,VALID,1.14844,
2012-01-14, 02:57:04,VALID,1007.62,VALID,0,VALID,104,VALID,0,VALID,23.5186,VALID,74,VALID,1.01797,
2012-01-14, 02:58:04,VALID,1007.58,VALID,0,VALID,104,VALID,0,VALID,23.5186,VALID,87,VALID,0.805469,
2012-01-14, 02:59:04,VALID,1007.61,VALID,0,VALID,104,VALID,0,VALID,23.5381,VALID,87,VALID,0.862891,
2012-01-14, 03:00:04,VALID,1007.57,VALID,0,VALID,104,VALID,0,VALID,23.5186,VALID,63,VALID,0.705859,
2012-01-14, 03:01:04,VALID,1007.53,VALID,0,VALID,104,VALID,0,VALID,23.5186,VALID,63,VALID,0.495703,
2012-01-14, 03:02:04,VALID,1007.56,VALID,0,VALID,104,VALID,0,VALID,23.5186,VALID,39,VALID,0.644922,
2012-01-14, 03:03:04,VALID,1007.58,VALID,0,VALID,104,VALID,0,VALID,23.5399,VALID,58,VALID,0.70625,
2012-01-14, 03:04:04,VALID,1007.58,VALID,0,VALID,104,VALID,0.112112,VALID,23.5186,VALID,58,VALID,0.340625,
2012-01-14, 03:05:04,VALID,1007.58,VALID,0,VALID,104,VALID,0,VALID,23.5186,VALID,58,VALID,0.253125,
2012-01-14, 03:06:04,VALID,1007.56,VALID,0,VALID,104,VALID,0,VALID,23.5186,VALID,58,VALID,0.398438,
2012-01-14, 03:07:04,VALID,1007.49,VALID,0,VALID,104,VALID,0,VALID,23.5186,VALID,58,VALID,0.799219,
2012-01-14, 03:08:04,VALID,1007.5,VALID,0,VALID,104,VALID,0,VALID,23.4992,VALID,60,VALID,0.646094,
2012-01-14, 03:09:04,VALID,1007.51,VALID,0,VALID,104,VALID,0,VALID,23.5186,VALID,62,VALID,0.677344,
2012-01-14, 03:10:04,VALID,1007.51,VALID,0,VALID,104,VALID,0,VALID,23.5186,VALID,73,VALID,0.667969,
2012-01-14, 03:11:04,VALID,1007.47,VALID,0,VALID,104,VALID,0,VALID,23.5186,VALID,73,VALID,0.405078,
2012-01-14, 03:12:04,VALID,1007.48,VALID,0,VALID,104,VALID,0,VALID,23.5186,VALID,73,VALID,0.317969,
2012-01-14, 03:13:04,VALID,1007.46,VALID,0,VALID,104,VALID,0,VALID,23.5186,VALID,74,VALID,0.326953,
2012-01-14, 03:14:04,VALID,1007.48,VALID,0,VALID,104,VALID,0,VALID,23.4992,VALID,70,VALID,1.04219,
2012-01-14, 03:15:04,VALID,1007.42,VALID,0,VALID,104,VALID,0,VALID,23.5009,VALID,69,VALID,0.749609,
2012-01-14, 03:16:04,VALID,1007.4,VALID,0,VALID,104,VALID,0.112112,VALID,23.4779,VALID,82,VALID,0.954687,
2012-01-14, 03:17:04,VALID,1007.33,VALID,0,VALID,104,VALID,0.112112,VALID,23.4992,VALID,89,VALID,0.994922,
2012-01-14, 03:18:04,VALID,1007.3,VALID,0,VALID,104,VALID,0.112112,VALID,23.4584,VALID,89,VALID,1.39258,
2012-01-14, 03:19:04,VALID,1007.33,VALID,0,VALID,104,VALID,0.112112,VALID,23.4584,VALID,81,VALID,1.22305,
2012-01-14, 03:20:04,VALID,1007.31,VALID,0,VALID,104,VALID,0.112112,VALID,23.4389,VALID,82,VALID,0.619141,
2012-01-14, 03:21:04,VALID,1007.28,VALID,0,VALID,104,VALID,0.112112,VALID,23.4389,VALID,72,VALID,0.681641,
2012-01-14, 03:22:04,VALID,1007.25,VALID,0,VALID,104,VALID,0.112112,VALID,23.4194,VALID,75,VALID,0.996875,
2012-01-14, 03:23:04,VALID,1007.25,VALID,0,VALID,104,VALID,0.112112,VALID,23.4194,VALID,76,VALID,0.810156,
2012-01-14, 03:24:04,VALID,1007.27,VALID,0,VALID,104,VALID,0.112112,VALID,23.4194,VALID,103,VALID,0.731641,
2012-01-14, 03:25:04,VALID,1007.28,VALID,0,VALID,104,VALID,0.112112,VALID,23.3982,VALID,82,VALID,0.459766,
2012-01-14, 03:26:04,VALID,1007.29,VALID,0,VALID,104,VALID,0.112112,VALID,23.4,VALID,82,VALID,0.205078,
2012-01-14, 03:27:04,VALID,1007.26,VALID,0,VALID,104,VALID,0.112112,VALID,23.4,VALID,82,VALID,0.101563,
2012-01-14, 03:28:04,VALID,1007.25,VALID,0,VALID,104,VALID,0.112112,VALID,23.4,VALID,82,VALID,0.169922,
2012-01-14, 03:29:04,VALID,1007.23,VALID,0,VALID,104,VALID,0.224224,VALID,23.3982,VALID,83,VALID,0.605469,
2012-01-14, 03:30:04,VALID,1007.24,VALID,0,VALID,104,VALID,0.112112,VALID,23.4194,VALID,108,VALID,0.399219,
2012-01-14, 03:31:04,VALID,1007.25,VALID,0,VALID,104,VALID,0.112112,VALID,23.4389,VALID,108,VALID,0.247266,
2012-01-14, 03:32:04,VALID,1007.24,VALID,0,VALID,104,VALID,0.112112,VALID,23.4389,VALID,108,VALID,0,
2012-01-14, 03:33:04,VALID,1007.26,VALID,0,VALID,104,VALID,0.224224,VALID,23.4194,VALID,108,VALID,0.249219,
2012-01-14, 03:34:04,VALID,1007.29,VALID,0,VALID,104,VALID,0.112112,VALID,23.4,VALID,108,VALID,0.06875,
2012-01-14, 03:35:04,VALID,1007.28,VALID,0,VALID,104,VALID,0.112112,VALID,23.4194,VALID,108,VALID,0,
2012-01-14, 03:36:04,VALID,1007.24,VALID,0,VALID,104,VALID,0.112112,VALID,23.4,VALID,108,VALID,0.523828,
2012-01-14, 03:37:04,VALID,1007.2,VALID,0,VALID,104,VALID,0,VALID,23.4212,VALID,101,VALID,0.764453,
2012-01-14, 03:38:04,VALID,1007.16,VALID,0,VALID,104,VALID,0,VALID,23.4017,VALID,79,VALID,1.14609,
2012-01-14, 03:39:04,VALID,1007.17,VALID,0,VALID,104,VALID,0,VALID,23.4017,VALID,85,VALID,0.973437,
2012-01-14, 03:40:04,VALID,1007.18,VALID,0,VALID,104,VALID,0,VALID,23.4035,VALID,84,VALID,0.966016,
2012-01-14, 03:41:04,VALID,1007.2,VALID,0,VALID,104,VALID,0,VALID,23.4017,VALID,86,VALID,0.528125,
2012-01-14, 03:42:04,VALID,1007.16,VALID,0,VALID,104,VALID,0.112112,VALID,23.3823,VALID,86,VALID,0.671484,
2012-01-14, 03:43:04,VALID,1007.13,VALID,0,VALID,104,VALID,0,VALID,23.4017,VALID,96,VALID,0.400781,
2012-01-14, 03:44:04,VALID,1007.13,VALID,0,VALID,104,VALID,0,VALID,23.3823,VALID,116,VALID,0.469531,
2012-01-14, 03:45:04,VALID,1007.09,VALID,0,VALID,104,VALID,0,VALID,23.3823,VALID,116,VALID,0.284375,
2012-01-14, 03:46:04,VALID,1007.12,VALID,0,VALID,104,VALID,0,VALID,23.3823,VALID,116,VALID,0.232812,
2012-01-14, 03:47:04,VALID,1007.1,VALID,0,VALID,104,VALID,0,VALID,23.4017,VALID,56,VALID,0.639063,
2012-01-14, 03:48:04,VALID,1007.08,VALID,0,VALID,104,VALID,0,VALID,23.4017,VALID,36,VALID,0.7375,
2012-01-14, 03:49:04,VALID,1007.03,VALID,0,VALID,104,VALID,0,VALID,23.4017,VALID,36,VALID,0.578125,
2012-01-14, 03:50:04,VALID,1007.02,VALID,0,VALID,104,VALID,0,VALID,23.3823,VALID,44,VALID,0.416406,
2012-01-14, 03:51:04,VALID,1006.98,VALID,0,VALID,104,VALID,0,VALID,23.3823,VALID,44,VALID,0.360938,
2012-01-14, 03:52:04,VALID,1006.98,VALID,0,VALID,104,VALID,0,VALID,23.3628,VALID,52,VALID,0.611328,
2012-01-14, 03:53:04,VALID,1006.97,VALID,0,VALID,104,VALID,0,VALID,23.3628,VALID,35,VALID,0.926172,
2012-01-14, 03:54:04,VALID,1006.98,VALID,0,VALID,104,VALID,0,VALID,23.3433,VALID,77,VALID,0.837109,
2012-01-14, 03:55:04,VALID,1006.99,VALID,0,VALID,104,VALID,0,VALID,23.3238,VALID,47,VALID,0.948828,